Lapse_Rate
6.3 6.2 6.3 6.1 5.9 6.4 7.2 8.0 8.3 7.7 7.4 7.0 6.8 7.1 7.3 7.9 7.8 7.6 6.8 6.8 6.9 6.9 6.7 6.6 6.6 6.4 6.3 6.2 6.3 6.3 6.3 6.2 6.3 6.2 6.1 6.0 6.2 6.1 6.2 6.3 6.3 6.2 6.2 6.3 6.3 6.1 6.1 6.1 6.1
6.3 6.2 6.1 5.9 6.2 7.3 7.9 8.3 8.4 7.6 7.6 6.5 6.7 6.9 6.7 7.1 6.9 6.5 6.7 6.7 6.8 6.7 6.7 6.6 6.6 6.3 6.3 6.3 6.2 6.3 6.3 6.3 6.3 6.3 6.2 6.1 6.2 6.3 6.3 6.3 6.2 6.1 6.2 6.3 6.3 6.4 6.2 6.2 6.1
6.3 6.1 5.6 6.1 6.4 7.0 8.0 9.6 8.2 7.6 6.6 6.6 6.7 6.5 6.8 6.8 6.5 6.5 6.1 6.7 6.7 6.6 6.5 6.4 6.4 6.2 6.4 6.5 6.4 6.4 6.4 6.3 6.3 6.3 6.2 6.2 6.2 6.4 6.2 6.4 6.4 6.2 6.2 6.3 6.2 6.3 6.4 6.5 6.4
6.1 6.0 5.4 6.1 7.0 7.6 7.8 8.2 8.6 7.4 6.6 6.6 6.7 6.6 6.4 6.2 6.1 6.3 6.3 6.5 6.6 6.4 6.5 6.3 6.4 6.4 6.4 6.5 6.5 6.5 6.5 6.3 6.2 6.2 6.2 6.2 6.2 6.1 6.2 6.3 6.6 6.2 6.3 6.3 6.4 6.6 6.4 6.5 6.5
5.5 5.7 5.9 6.5 6.7 7.3 7.9 7.5 7.7 7.3 7.3 6.5 6.5 6.7 6.6 6.2 6.3 6.2 6.3 6.3 6.4 6.4 6.5 6.4 6.4 6.5 6.4 6.4 6.5 6.7 6.6 6.6 6.2 6.0 6.1 6.1 6.2 6.1 6.0 6.3 6.4 6.5 6.4 6.4 6.3 6.6 6.6 6.6 6.5
5.2 5.7 6.3 6.8 7.3 7.5 7.7 7.8 7.4 7.2 7.2 6.7 6.5 6.6 6.6 6.4 6.1 6.0 6.2 6.4 6.4 6.4 6.6 6.6 6.5 6.6 6.5 6.5 6.6 6.6 6.7 6.7 6.4 6.0 6.0 6.1 6.1 6.2 6.1 6.3 6.3 6.3 5.7 5.7 6.1 6.2 6.3 6.5 6.6
5.4 6.0 6.4 6.9 7.5 7.9 8.2 7.0 7.1 7.4 7.0 6.9 7.0 6.6 6.4 6.6 5.7 5.7 6.3 6.3 6.5 6.6 6.7 6.7 6.7 6.7 6.6 6.6 6.7 6.7 6.9 6.9 6.6 6.1 6.2 6.3 6.1 6.2 6.2 6.4 6.5 6.2 6.0 5.3 5.4 5.9 6.3 6.3 6.3
5.5 5.9 6.2 6.7 7.1 7.5 8.1 7.0 7.2 6.9 6.9 7.0 6.4 6.4 6.6 6.4 5.7 6.8 6.7 6.6 6.7 6.7 6.8 6.8 6.8 6.6 6.7 6.6 6.7 6.9 6.9 7.0 6.8 6.4 6.4 6.4 6.2 6.1 6.3 6.0 5.9 5.7 5.5 5.4 5.5 5.6 5.9 6.1 6.0
5.6 5.8 6.1 6.8 7.2 7.5 7.1 7.0 7.3 6.8 6.5 6.6 6.3 6.5 6.8 5.9 6.1 7.3 7.0 6.7 6.8 6.9 6.9 7.0 6.8 6.7 6.7 6.7 6.9 7.0 7.0 7.1 6.9 6.6 6.5 6.5 6.3 6.0 6.0 5.7 5.8 5.7 5.5 5.2 5.2 5.5 5.6 5.6 5.8
5.7 6.0 6.4 6.9 7.4 7.2 6.9 6.8 6.9 6.7 6.6 6.3 6.3 6.2 6.2 6.0 6.3 6.7 6.9 6.7 7.1 7.0 7.0 7.1 6.8 6.8 6.8 6.9 7.1 7.1 7.1 7.1 7.0 6.8 6.6 6.5 6.3 6.0 5.9 5.6 5.6 5.7 5.5 5.5 5.4 5.3 5.5 5.4 5.7
5.7 5.9 6.6 6.9 7.0 6.4 6.5 6.6 6.6 6.5 6.4 6.4 6.5 6.4 6.3 6.2 5.9 6.3 7.0 6.5 7.2 7.2 7.2 7.3 7.0 6.8 7.0 7.2 7.3 7.3 7.3 7.2 7.2 7.1 6.8 6.4 6.2 5.9 5.8 5.5 5.4 5.6 5.7 5.5 5.5 5.2 5.3 5.6 5.5
5.8 5.9 6.2 6.4 6.5 6.2 6.0 6.1 6.2 6.4 6.4 6.3 6.2 6.2 6.4 6.3 5.9 6.4 6.6 6.7 7.1 6.5 7.2 7.4 7.1 6.8 7.0 7.3 7.4 7.5 7.5 7.4 7.3 7.2 6.9 6.6 6.3 5.8 5.6 5.4 5.7 6.0 5.6 5.5 5.3 5.2 5.2 5.4 5.5
6.1 6.2 6.2 6.1 6.2 5.9 6.0 6.0 6.1 6.2 6.3 6.2 6.1 6.1 6.0 6.1 6.0 6.3 6.7 6.8 6.7 6.3 7.4 7.6 7.3 7.2 7.3 7.6 7.5 7.5 7.5 7.6 7.4 7.1 7.0 6.6 6.4 5.9 5.7 5.6 5.6 5.5 5.3 5.4 5.1 5.1 5.0 5.2 5.3
6.5 6.6 6.1 6.0 6.0 6.0 6.1 6.1 6.1 6.2 6.4 6.3 6.2 6.2 6.0 5.9 6.0 6.2 6.5 6.8 6.7 6.6 7.1 7.9 7.7 7.7 7.7 7.8 7.7 7.6 7.7 7.7 7.5 7.2 7.1 6.7 6.4 6.0 5.7 5.6 5.6 5.8 5.3 5.4 4.9 5.0 5.0 5.1 5.4
5.8 5.9 6.1 6.3 6.3 6.2 6.3 6.0 6.1 6.4 6.5 6.5 6.5 6.3 6.2 6.0 6.0 6.3 6.6 6.8 7.0 6.9 7.0 7.8 8.1 8.0 8.0 7.9 7.7 7.7 7.7 7.7 7.5 7.2 7.1 6.8 6.4 6.1 5.7 5.7 5.8 5.7 5.5 5.5 5.1 4.9 5.0 5.0 5.2
5.8 5.7 5.9 7.3 7.7 7.1 6.7 6.3 6.9 7.0 6.7 6.7 6.6 6.6 6.4 6.3 6.3 6.3 6.6 6.8 7.0 7.1 7.2 8.0 8.4 8.2 8.2 8.1 7.7 7.8 7.6 7.6 7.4 7.2 7.1 6.7 6.3 6.2 6.1 5.9 6.0 5.8 5.6 5.7 4.9 5.0 4.8 4.9 4.9
6.4 6.4 7.4 7.8 7.9 7.7 7.4 7.2 7.3 6.7 6.5 6.7 6.5 6.6 6.7 6.6 6.6 6.7 6.7 6.8 6.9 7.1 7.2 8.1 8.5 8.4 8.5 8.1 7.7 7.8 7.7 7.4 7.4 7.2 7.1 6.9 6.7 6.6 6.3 6.2 6.1 6.1 5.7 5.6 5.3 5.2 4.8 5.0 4.7
8.0 8.0 8.3 8.3 8.9 7.6 7.6 7.3 6.9 6.8 6.6 6.5 6.6 6.6 6.6 6.6 6.7 6.8 6.9 7.0 7.0 6.9 7.0 8.1 8.4 8.5 8.5 8.0 8.1 7.7 7.5 7.4 7.4 7.2 7.0 6.9 6.6 6.5 6.4 6.2 6.0 6.0 5.9 5.5 5.4 5.0 4.8 5.0 4.8
7.3 7.3 7.8 8.3 8.8 7.8 7.5 7.2 7.2 6.7 6.8 6.8 6.9 6.8 6.6 6.5 6.7 6.8 6.9 7.1 6.8 6.7 7.3 8.1 8.5 8.6 8.5 8.5 8.2 7.7 7.5 7.5 7.6 7.3 7.0 6.8 6.7 6.5 6.2 6.1 5.9 5.8 5.5 5.7 5.3 5.0 5.2 5.0 4.6
6.9 7.3 7.9 8.6 8.7 8.3 7.7 7.3 7.4 7.3 6.8 7.1 7.1 6.9 6.8 6.7 6.8 6.8 6.9 7.1 6.4 7.0 7.8 8.2 8.7 8.6 8.5 8.4 8.1 7.6 7.4 7.7 7.5 7.3 7.1 6.9 6.6 6.3 6.0 5.7 5.6 5.5 5.6 5.2 5.4 5.3 5.0 4.9 4.6
8.1 8.3 8.2 8.4 8.3 8.0 8.2 7.8 8.1 8.2 7.7 7.3 7.0 6.9 6.7 6.8 6.8 6.8 6.8 7.0 6.4 7.4 7.9 8.4 8.7 8.6 8.6 8.6 8.1 7.8 7.5 7.7 7.5 7.3 7.0 6.6 6.4 6.1 5.9 5.8 5.4 5.1 5.3 5.6 5.5 5.5 5.2 5.0 5.1
8.0 8.7 8.3 8.3 8.1 8.6 9.1 8.5 8.2 8.2 8.0 7.5 7.1 6.8 6.7 6.6 6.6 6.6 6.8 7.1 6.9 7.3 7.9 8.3 8.7 8.6 8.6 8.7 8.3 7.8 7.7 7.6 7.4 7.2 6.8 6.4 6.3 5.9 5.7 5.6 5.2 4.9 5.3 5.4 5.2 5.6 5.3 5.0 5.0
7.7 8.5 7.9 7.9 8.2 8.1 8.2 8.4 8.0 8.7 8.1 7.5 6.8 6.4 6.5 6.7 6.7 6.7 6.8 6.9 7.2 7.0 7.9 8.4 8.7 8.5 8.7 8.8 8.4 7.8 7.9 7.5 7.5 7.1 6.7 6.6 6.5 6.0 5.7 5.3 5.1 4.8 5.3 5.1 5.2 5.2 5.3 5.1 4.9
7.8 8.0 7.9 8.0 8.4 8.6 8.2 8.3 8.8 9.1 7.4 6.6 6.2 6.0 5.9 6.0 6.1 6.4 6.6 6.9 7.3 7.2 7.9 8.4 8.9 8.5 9.0 8.9 8.4 8.0 7.9 7.6 7.4 7.2 7.1 6.7 6.5 6.2 5.9 5.4 5.5 5.3 4.9 5.2 5.2 5.0 5.1 5.2 5.0
7.6 7.9 8.5 8.8 8.4 8.3 9.2 8.9 9.0 7.9 7.1 6.3 5.9 5.6 5.4 5.3 5.4 5.7 6.2 7.2 7.6 7.4 7.7 8.4 8.8 8.7 9.0 9.0 8.4 8.1 7.8 7.8 7.3 7.5 7.2 6.6 6.4 6.0 5.7 5.4 5.4 5.2 5.0 5.1 5.2 5.3 4.9 5.1 5.1
7.6 8.0 8.3 8.6 8.9 8.7 8.2 8.6 9.0 7.5 6.6 6.3 5.9 5.4 5.2 5.8 6.1 6.6 6.7 6.8 7.4 7.3 7.7 8.4 8.6 8.7 9.1 8.6 8.4 8.1 7.7 7.8 7.5 7.6 7.1 6.8 6.6 6.3 6.0 5.6 5.7 5.3 5.1 5.0 4.8 5.3 5.0 5.1 4.9
7.9 7.9 8.3 8.5 8.3 8.4 8.4 9.2 8.4 7.3 6.6 6.4 6.2 5.4 6.7 6.8 7.0 7.5 8.0 7.4 7.8 7.4 8.2 8.4 8.4 8.8 8.6 8.5 8.4 8.0 7.8 7.8 7.7 7.5 7.1 7.0 6.8 6.5 6.2 5.8 5.6 5.6 5.4 5.3 5.0 5.1 5.3 5.1 4.9
7.9 7.9 7.5 7.6 8.0 8.5 9.5 9.4 8.7 6.7 6.7 6.5 5.9 6.1 6.4 7.0 7.4 7.4 7.8 7.9 6.7 7.9 8.4 8.3 8.7 8.7 8.5 8.6 8.2 7.9 7.8 7.7 7.8 7.7 7.2 6.9 6.8 6.7 6.3 5.9 5.5 5.4 5.3 5.3 5.0 4.9 4.9 5.0 5.0
7.4 7.1 7.0 7.3 7.7 8.4 8.5 8.2 7.4 6.8 6.6 6.2 6.3 6.6 6.5 6.9 7.3 7.5 7.9 8.2 6.7 8.3 8.4 8.5 8.7 8.6 8.6 8.3 8.0 8.0 7.8 7.8 7.7 7.7 7.3 7.0 6.9 6.6 6.4 6.1 5.8 5.2 5.3 5.4 5.2 5.1 5.3 5.1 5.1
7.2 7.3 7.3 7.4 8.3 8.2 8.1 8.1 6.7 7.0 6.5 6.3 6.5 6.7 6.6 6.6 7.2 7.8 7.8 8.0 7.9 7.9 8.1 8.4 8.7 8.5 8.5 7.8 7.8 8.0 7.8 7.7 7.6 7.7 7.4 7.1 6.8 6.8 6.6 6.3 5.9 5.5 5.6 5.6 5.6 5.6 5.5 5.4 5.3
Wind_Speed
11 13 9 7 8 8 17 17 5 5 6 3 5 7 7 15 3 1 6 10 12 13 15 17 12 12 11 11 10 11 16 18 19 19 18 19 18 17 17 16 17 18 18 20 19 18 18 17 17
17 14 7 7 10 15 15 17 9 9 5 4 5 7 11 11 2 6 8 8 15 14 15 16 13 12 11 11 11 12 16 18 19 19 18 18 18 18 21 20 18 18 19 19 20 19 20 19 17
15 12 9 7 16 19 17 14 6 7 4 8 7 5 10 6 2 2 11 12 14 13 14 16 16 13 13 12 12 13 15 18 19 19 19 19 19 18 21 22 18 19 20 20 20 19 19 17 17
10 8 8 14 22 19 21 17 1 7 6 8 7 5 3 4 1 4 14 13 13 12 11 23 18 15 14 14 12 12 13 14 16 18 21 21 23 23 21 20 19 19 20 20 20 20 21 18 19
11 8 12 18 24 25 19 12 7 10 10 5 5 11 8 8 7 3 13 12 13 11 10 15 17 15 13 14 13 12 13 14 15 18 20 22 21 21 19 20 21 21 20 19 18 19 22 20 18
10 12 16 18 24 24 19 12 14 13 14 13 13 12 10 1 3 7 11 13 12 11 10 13 15 13 13 11 11 12 13 13 16 19 20 21 20 20 21 22 20 14 4 7 15 19 21 20 20
18 15 20 25 23 21 14 10 18 20 17 20 18 16 12 5 5 3 9 13 11 10 10 11 14 14 12 13 11 12 12 13 13 17 12 19 20 20 21 17 13 14 14 10 11 17 19 19 18
14 16 28 23 20 25 16 11 18 14 17 16 5 9 13 10 5 4 9 13 11 10 10 9 11 13 13 12 13 12 11 10 12 11 7 13 16 17 20 17 15 16 16 10 15 16 20 17 19
17 16 21 25 23 22 8 14 17 13 17 16 13 15 2 3 0 5 10 13 12 11 10 9 8 10 11 11 12 12 10 10 9 10 13 15 14 20 20 18 18 16 21 22 22 19 19 18 16
19 16 26 22 21 15 8 16 14 13 16 17 17 13 12 8 6 5 12 15 15 14 13 12 10 10 9 10 11 14 15 14 14 14 14 14 15 18 19 18 20 21 20 22 23 26 25 24 18
22 24 21 23 14 12 16 18 18 20 21 19 17 17 17 19 12 9 10 15 18 16 12 13 12 11 12 8 7 8 9 10 12 14 14 15 15 13 16 13 13 15 19 19 18 19 20 19 17
23 23 21 19 20 15 18 20 22 22 21 18 19 18 20 17 15 14 14 15 17 19 17 14 13 12 14 9 8 7 6 7 7 12 16 10 6 8 9 8 16 14 13 13 18 14 16 18 21
22 22 21 22 19 18 21 23 25 26 23 22 22 23 22 20 19 18 18 16 16 19 19 16 15 14 12 9 4 7 7 7 8 11 14 14 8 9 9 9 11 12 14 12 8 13 15 16 19
17 18 17 19 21 18 20 23 24 24 23 23 24 24 21 21 20 20 20 19 17 17 18 17 17 15 13 12 11 7 7 7 8 9 12 18 12 10 10 9 9 7 12 15 14 10 10 10 14
16 22 20 22 22 23 21 25 25 24 24 26 25 22 21 23 24 23 22 20 18 17 18 18 17 17 16 15 12 8 7 6 7 7 15 16 16 12 10 8 6 8 12 13 16 13 13 10 11
15 19 18 18 18 13 17 20 17 8 13 16 19 20 21 23 24 22 23 21 19 18 18 19 16 16 16 13 11 9 6 5 9 10 11 16 17 17 11 8 8 10 9 8 7 10 8 10 9
16 17 19 16 11 11 15 17 14 16 12 13 14 16 16 17 21 22 24 22 21 17 16 19 19 18 17 14 9 8 10 7 7 8 7 12 13 13 8 6 5 12 6 8 8 7 7 10 7
15 18 17 17 12 6 16 20 19 20 21 23 23 20 19 19 18 17 20 20 19 16 17 19 16 17 16 11 9 8 6 8 7 7 6 12 12 15 8 5 5 9 8 9 9 11 8 12 10
18 22 21 20 16 17 22 22 21 21 22 23 22 22 21 19 17 16 19 21 13 14 18 20 19 18 13 9 10 9 7 8 8 7 8 9 9 12 9 6 8 10 12 11 13 9 11 10 11
19 22 23 21 19 15 19 22 20 22 23 24 23 21 21 18 19 19 18 19 13 15 17 19 20 20 14 12 11 9 8 8 8 8 8 11 9 10 7 7 7 10 10 11 12 13 9 8 9
18 19 21 20 18 19 22 24 24 17 17 16 17 20 20 20 20 17 18 20 16 16 18 19 20 19 17 16 10 9 8 6 7 7 9 11 13 14 13 14 9 7 12 11 12 12 14 9 11
18 17 17 15 15 11 12 14 19 17 9 8 7 11 13 18 20 17 18 20 19 17 17 18 19 19 17 17 13 14 11 9 8 9 8 7 7 10 10 13 11 12 9 12 12 11 10 11 12
17 13 10 14 15 16 18 11 16 12 8 4 9 11 13 13 15 16 20 19 21 19 17 17 18 19 18 17 15 12 11 8 8 7 5 9 6 6 7 8 12 13 9 15 16 13 9 9 13
13 10 13 15 13 13 19 15 12 4 8 6 7 7 12 13 13 9 10 14 17 19 17 16 19 20 18 18 16 15 13 10 8 7 7 6 5 3 3 1 8 12 10 12 13 16 15 12 12
14 12 7 8 7 10 5 6 12 9 6 7 9 10 8 11 13 15 9 14 16 17 18 17 18 17 19 19 16 14 13 11 10 10 8 7 5 4 5 5 3 5 9 12 12 15 16 12 11
17 16 8 9 8 10 0 8 5 12 11 6 7 7 10 9 10 12 17 11 11 12 17 16 16 14 16 19 16 13 12 8 7 9 7 6 6 6 7 6 5 4 7 9 8 9 10 9 10
19 15 17 17 20 13 9 13 15 12 8 5 7 12 13 12 13 15 19 7 7 11 15 14 14 14 18 19 14 13 12 10 9 11 11 8 8 8 8 8 8 7 6 8 8 5 5 4 4
18 4 8 8 6 10 14 17 9 8 5 6 13 12 13 14 15 16 18 20 6 14 13 10 11 14 17 16 12 11 11 10 10 10 10 9 10 10 11 10 9 9 7 6 9 7 6 6 3
12 11 9 6 9 5 7 2 12 8 7 10 13 12 13 13 13 14 17 19 11 11 11 11 12 13 13 14 12 12 9 10 9 8 8 8 7 8 10 11 10 11 11 9 8 8 9 9 8
10 13 15 8 12 6 4 2 5 8 5 6 7 9 11 11 12 13 15 16 12 5 8 9 11 13 9 12 12 12 10 8 9 7 8 7 7 8 7 9 10 10 11 11 12 11 12 13 13
Wind_Direction
218 224 235 241 248 229 254 246 240 257 231 181 334 274 286 301 275 344 108 95 118 140 142 165 153 149 162 176 178 179 179 175 172 166 169 170 164 168 159 156 154 155 154 146 149 150 149 141 130
214 218 226 262 243 251 245 231 200 237 244 81 264 252 255 259 315 97 139 134 142 143 144 159 153 151 159 164 171 175 179 179 175 170 168 167 167 172 170 164 162 158 151 151 155 156 143 136 131
251 207 238 228 235 249 262 266 220 262 52 253 244 220 244 242 85 295 104 148 147 147 146 141 156 156 159 164 172 177 178 178 174 168 170 170 172 174 176 173 163 161 156 158 160 151 137 130 128
195 205 252 256 247 237 246 272 166 239 202 241 249 254 147 311 24 242 136 156 156 152 155 138 156 163 163 168 175 177 176 174 172 170 174 176 183 187 186 182 172 166 165 167 162 153 135 130 130
210 221 233 242 245 257 263 241 322 243 232 262 211 260 236 170 216 201 158 165 161 153 148 152 162 166 166 170 175 176 186 176 173 175 179 187 186 188 181 179 179 178 170 169 157 141 131 132 133
217 234 239 245 247 246 246 254 236 235 252 228 234 257 261 176 202 173 173 173 166 161 163 154 170 174 170 171 177 178 180 182 174 190 193 195 190 178 182 183 189 192 152 170 154 151 136 140 143
233 224 245 255 263 273 275 200 252 262 251 256 255 228 255 142 38 39 195 176 174 167 173 158 175 183 185 184 188 188 184 186 190 207 211 195 189 188 184 176 146 124 149 176 173 153 139 144 147
234 253 262 253 259 261 260 224 263 264 255 262 263 232 239 83 48 231 208 183 179 173 181 168 177 181 187 191 197 195 190 188 192 217 183 187 186 163 139 138 142 148 130 159 170 180 159 146 154
224 252 250 254 259 263 243 265 254 238 268 258 232 240 290 72 259 186 201 189 186 184 188 180 188 185 184 195 192 191 182 195 171 181 158 160 177 166 157 162 161 160 164 167 168 159 149 152 157
225 232 246 263 285 305 249 260 257 237 232 238 257 239 249 241 247 246 216 196 200 194 194 182 181 187 191 194 186 202 198 205 208 200 185 193 188 186 180 177 172 181 181 175 172 153 156 161 168
222 242 258 265 287 267 283 266 262 260 257 263 254 234 238 219 228 228 235 229 200 206 197 201 180 187 188 189 197 199 193 205 211 207 195 203 185 179 185 174 185 204 194 182 153 158 174 181 182
244 248 265 271 277 271 249 263 263 263 266 265 262 257 251 245 234 242 235 224 229 198 200 194 181 196 195 188 194 201 198 199 203 207 205 195 185 178 184 193 189 193 192 190 165 172 199 184 185
244 260 264 275 258 260 269 261 265 264 269 266 259 254 257 256 240 238 239 234 226 222 194 189 201 192 194 189 172 206 206 200 204 204 205 206 193 183 184 187 194 185 183 180 172 186 200 186 184
258 273 267 273 270 261 262 265 262 261 260 257 254 252 250 248 244 241 235 231 224 221 203 181 198 196 184 189 182 189 203 190 198 216 209 209 205 197 193 193 190 188 183 178 172 214 195 181 178
285 276 270 258 256 254 255 260 259 263 257 253 251 247 246 246 240 242 238 228 224 221 208 181 194 194 188 192 173 189 197 176 192 207 213 203 209 199 191 179 182 193 179 187 176 203 200 179 169
265 270 271 263 239 256 233 261 278 261 274 246 248 251 248 241 238 234 236 230 229 223 213 183 188 193 195 190 182 167 171 186 193 209 208 198 205 199 187 186 187 191 164 177 184 183 196 202 192
241 259 259 263 245 255 237 260 273 302 286 266 266 267 258 248 238 230 231 223 223 222 212 185 185 192 194 190 184 187 162 196 205 203 195 190 205 201 190 181 169 171 158 170 163 173 179 210 146
250 254 249 258 260 240 257 266 283 281 275 269 269 262 257 253 246 237 230 224 220 218 198 186 183 192 189 177 174 189 177 196 188 194 194 192 194 205 194 192 172 173 173 175 167 169 193 229 149
269 278 282 281 288 278 273 272 271 270 258 259 258 254 249 251 254 237 231 228 210 212 187 184 180 190 187 168 177 185 179 196 193 194 180 188 196 197 194 200 196 185 173 172 179 175 195 240 159
254 264 266 275 278 264 273 273 276 266 261 259 257 257 254 247 244 229 235 224 190 202 192 184 182 189 172 185 181 185 193 195 197 193 189 199 189 191 188 184 182 186 172 177 182 176 183 219 169
249 258 273 281 294 287 274 275 264 243 246 253 261 253 252 247 243 235 228 227 180 206 191 191 184 190 179 194 174 172 181 186 196 193 205 209 202 201 202 208 191 197 179 180 181 178 182 185 189
260 264 255 272 277 275 320 294 298 293 263 268 255 250 252 245 245 238 236 229 189 200 192 196 184 189 184 190 178 179 182 188 202 207 208 204 211 223 222 202 188 194 193 179 185 179 182 181 183
263 279 269 266 269 278 274 266 272 221 228 40 353 359 320 235 238 234 234 238 232 184 193 194 183 185 180 189 183 178 189 194 186 191 182 198 192 221 239 219 208 195 202 182 181 182 179 199 186
242 265 252 262 261 264 264 244 267 212 67 18 4 358 349 352 336 296 289 277 231 180 181 179 182 186 176 185 186 187 186 185 163 174 185 177 186 171 147 308 201 191 167 179 176 178 192 203 202
215 230 251 223 221 248 282 208 237 105 77 33 14 11 18 357 348 327 290 262 248 167 176 176 173 178 183 183 184 183 180 187 187 177 181 169 166 162 160 135 96 172 171 171 177 176 186 202 197
207 214 232 256 260 293 138 216 186 103 77 35 24 13 9 6 353 331 329 282 234 181 181 160 170 175 174 189 178 176 179 189 183 174 176 173 174 162 159 147 126 117 147 157 161 175 178 194 192
234 230 243 265 279 277 256 284 162 114 83 18 24 17 12 6 5 345 337 290 223 178 139 159 170 177 180 186 172 169 183 174 185 168 166 171 173 176 162 158 157 143 145 145 142 138 141 126 163
238 274 209 217 244 235 243 228 152 114 44 359 29 16 12 13 9 357 346 333 228 124 145 158 179 181 185 175 164 169 176 177 179 176 178 178 175 171 178 165 165 158 152 149 151 152 143 155 166
203 219 222 253 259 280 289 122 100 103 27 11 22 21 22 15 15 5 350 341 71 125 148 164 183 171 189 163 170 169 175 158 165 164 181 187 180 177 174 172 176 170 166 166 164 171 174 186 192
256 237 227 229 216 238 288 344 85 42 23 29 17 19 19 28 24 21 3 354 360 103 163 183 155 161 179 177 174 169 167 152 154 172 159 178 180 162 187 170 179 176 176 176 180 181 184 189 196